Starlink 32027

operational
NORAD ID: 60143 Int'l Des: 2024-120 Owner: SPXS Country: US Constellation: starlink
LEOCIRCULAR

Über Starlink 32027

Beschreibung wird geladen...

Live-Position

3D-Globus wird geladen...

Nächste Überflüge

Höhenverlauf

Altitude vs Time

uPlot chart will show altitude changes over time

Zweizeiliger Elementsatz

1 60143U 24120J 25259.12446811 .00000762 00000-0 37862-4 0 9998
2 60143 53.1611 50.4247 0000979 88.4567 271.6546 15.30188871 69736
Epoch: 16. Sept. 2025 • Age: 9 hours

Aktueller Status

Höhe 481.1 km
Geschwindigkeit 7.62 km/s
Subsatellitenpunkt -20.01°S, 73.04°E
Startdatum 27. Juni 2024
Alter 1.2 years
Typ internet

Technische Details

Klassifizierung Payload
Masse 730.00 kg
Trockenmasse 700.00 kg
Gesamtmasse 730.00 kg
Länge 0.30 m
Durchmesser 4.10 m
Spannweite 29.00 m
Form Box + pan
Hersteller SPXS
Bus-Typ Starlink V2M
Phasenstatus In Orbit
Besitzer/Staat SPXS/US

Große Konstellationen

Loading constellations...